When you browse on this site, cookies collect data to enhance your experience and personalize the content and advertising you see.
Visit our Privacy Policy to learn more. By continuing to use the site, you agree to this use of cookies and data.

Hourly Weather Kosaya Guba

Today, 13 July, Monday

Time Temperature Precipitation Wind Pressure Humidity
00:00 +19°C° 0 mm 1 mps 745 mmHg 83%
01:00 +19°C° 0 mm 1 mps 745 mmHg 84%
02:00 +18°C° 0 mm 1 mps 745 mmHg 86%
03:00 +19°C° 0 mm 1 mps 745 mmHg 86%
04:00 +19°C° 0 mm 1 mps 744 mmHg 87%
05:00 +19°C° 0 mm 1 mps 744 mmHg 88%
06:00 +19°C° 0 mm 2 mps 744 mmHg 86%
07:00 +21°C° 0 mm 2 mps 744 mmHg 83%
08:00 +22°C° 0 mm 3 mps 744 mmHg 81%
09:00 +24°C° 0 mm 3 mps 744 mmHg 77%
10:00 +25°C° 0 mm 3 mps 743 mmHg 73%
11:00 +26°C° 0 mm 3 mps 743 mmHg 69%
12:00 +26°C° 0.7 mm 3 mps 743 mmHg 71%
13:00 +25°C° 0.7 mm 3 mps 743 mmHg 73%
14:00 +25°C° 0.7 mm 3 mps 743 mmHg 75%
15:00 +24°C° 1 mm 2 mps 742 mmHg 80%
16:00 +23°C° 1 mm 2 mps 742 mmHg 84%
17:00 +21°C° 1 mm 2 mps 742 mmHg 88%
18:00 +20°C° 0.4 mm 2 mps 742 mmHg 90%
19:00 +19°C° 0.4 mm 2 mps 742 mmHg 92%
20:00 +19°C° 0.4 mm 2 mps 742 mmHg 93%
21:00 +18°C° 0 mm 3 mps 742 mmHg 94%
22:00 +18°C° 0 mm 3 mps 742 mmHg 95%
23:00 +18°C° 0 mm 3 mps 742 mmHg 96%

Tomorrow, 14 July, Tuesday

Time Temperature Precipitation Wind Pressure Humidity
00:00 +17°C° 0.2 mm 3 mps 742 mmHg 97%
01:00 +17°C° 0.2 mm 3 mps 741 mmHg 97%
02:00 +17°C° 0.2 mm 3 mps 741 mmHg 97%
03:00 +17°C° 0.5 mm 4 mps 741 mmHg 97%
04:00 +17°C° 0.5 mm 4 mps 741 mmHg 97%
05:00 +17°C° 0.5 mm 4 mps 741 mmHg 97%
06:00 +17°C° 1.4 mm 4 mps 741 mmHg 97%
07:00 +16°C° 1.4 mm 5 mps 741 mmHg 97%
08:00 +17°C° 1.4 mm 5 mps 740 mmHg 97%
09:00 +17°C° 1.5 mm 5 mps 740 mmHg 97%
10:00 +17°C° 1.5 mm 6 mps 740 mmHg 96%
11:00 +17°C° 1.5 mm 6 mps 739 mmHg 96%
12:00 +17°C° 2 mm 6 mps 739 mmHg 96%
13:00 +17°C° 2 mm 5 mps 738 mmHg 96%
14:00 +17°C° 2 mm 5 mps 738 mmHg 96%
15:00 +17°C° 7.7 mm 6 mps 737 mmHg 97%
16:00 +17°C° 7.7 mm 6 mps 737 mmHg 97%
17:00 +17°C° 7.7 mm 6 mps 736 mmHg 97%
18:00 +16°C° 0.5 mm 5 mps 736 mmHg 97%
19:00 +17°C° 0.5 mm 4 mps 736 mmHg 97%
20:00 +17°C° 0.5 mm 3 mps 736 mmHg 97%
21:00 +17°C° 0 mm 3 mps 736 mmHg 97%
22:00 +16°C° 0 mm 3 mps 735 mmHg 97%
23:00 +16°C° 0 mm 3 mps 735 mmHg 98%

Day after tomorrow, 15 July, Wednesday

Time Temperature Precipitation Wind Pressure Humidity
00:00 +16°C° 0 mm 3 mps 735 mmHg 98%
01:00 +16°C° 0 mm 3 mps 735 mmHg 98%
02:00 +16°C° 0 mm 3 mps 735 mmHg 98%
03:00 +16°C° 0 mm 3 mps 735 mmHg 97%
04:00 +16°C° 0 mm 3 mps 735 mmHg 97%
05:00 +16°C° 0 mm 3 mps 734 mmHg 96%
06:00 +16°C° 0 mm 3 mps 735 mmHg 95%
07:00 +17°C° 0 mm 3 mps 735 mmHg 94%
08:00 +17°C° 0 mm 3 mps 735 mmHg 93%
09:00 +16°C° 0.2 mm 3 mps 735 mmHg 92%
10:00 +15°C° 0.2 mm 4 mps 735 mmHg 92%
11:00 +15°C° 0.2 mm 4 mps 736 mmHg 91%
12:00 +14°C° 0.5 mm 4 mps 736 mmHg 91%
13:00 +14°C° 0.5 mm 4 mps 736 mmHg 91%
14:00 +14°C° 0.5 mm 4 mps 736 mmHg 91%
15:00 +13°C° 0.9 mm 3 mps 736 mmHg 91%
16:00 +13°C° 0.9 mm 3 mps 737 mmHg 91%
17:00 +14°C° 0.9 mm 2 mps 737 mmHg 91%
18:00 +13°C° 0.4 mm 3 mps 737 mmHg 93%
19:00 +14°C° 0.4 mm 4 mps 737 mmHg 94%
20:00 +14°C° 0.4 mm 5 mps 738 mmHg 95%
21:00 +14°C° 0.1 mm 5 mps 738 mmHg 95%
22:00 +14°C° 0.1 mm 6 mps 738 mmHg 95%
23:00 +15°C° 0.1 mm 7 mps 738 mmHg 95%

16 July, Thursday

Time Temperature Precipitation Wind Pressure Humidity
00:00 +14°C° 0.1 mm 6 mps 739 mmHg 95%
01:00 +14°C° 0.1 mm 6 mps 739 mmHg 95%
02:00 +14°C° 0.1 mm 6 mps 739 mmHg 95%
03:00 +13°C° 0 mm 6 mps 740 mmHg 95%
04:00 +13°C° 0 mm 6 mps 740 mmHg 95%
05:00 +13°C° 0 mm 6 mps 740 mmHg 94%
06:00 +13°C° 0 mm 6 mps 740 mmHg 94%
07:00 +13°C° 0 mm 6 mps 741 mmHg 93%
08:00 +13°C° 0 mm 6 mps 741 mmHg 92%
09:00 +14°C° 0 mm 5 mps 741 mmHg 91%
10:00 +14°C° 0 mm 5 mps 741 mmHg 89%
11:00 +15°C° 0 mm 5 mps 742 mmHg 88%
12:00 +15°C° 0 mm 5 mps 742 mmHg 86%
13:00 +16°C° 0 mm 6 mps 742 mmHg 85%
14:00 +16°C° 0 mm 6 mps 743 mmHg 83%
15:00 +16°C° 0 mm 5 mps 743 mmHg 84%
16:00 +17°C° 0 mm 4 mps 743 mmHg 85%
17:00 +15°C° 0 mm 4 mps 743 mmHg 86%
18:00 +15°C° 0 mm 4 mps 743 mmHg 86%
19:00 +15°C° 0 mm 4 mps 743 mmHg 87%
20:00 +14°C° 0 mm 3 mps 743 mmHg 87%
21:00 +14°C° 0 mm 4 mps 743 mmHg 87%
22:00 +14°C° 0 mm 4 mps 743 mmHg 87%
23:00 +14°C° 0 mm 4 mps 743 mmHg 86%

17 July, Friday

Time Temperature Precipitation Wind Pressure Humidity
00:00 +14°C° 0 mm 4 mps 743 mmHg 86%
01:00 +14°C° 0 mm 4 mps 743 mmHg 86%
02:00 +14°C° 0 mm 4 mps 743 mmHg 85%
03:00 +14°C° 0 mm 4 mps 743 mmHg 87%
04:00 +14°C° 0 mm 4 mps 743 mmHg 89%
05:00 +14°C° 0 mm 4 mps 743 mmHg 91%
06:00 +14°C° 0 mm 4 mps 743 mmHg 90%
07:00 +15°C° 0 mm 4 mps 743 mmHg 88%
08:00 +17°C° 0 mm 4 mps 744 mmHg 87%
09:00 +17°C° 0 mm 4 mps 744 mmHg 85%
10:00 +18°C° 0 mm 4 mps 744 mmHg 83%
11:00 +19°C° 0 mm 4 mps 744 mmHg 81%
12:00 +19°C° 0.1 mm 4 mps 744 mmHg 79%
13:00 +19°C° 0.1 mm 4 mps 744 mmHg 78%
14:00 +20°C° 0.1 mm 4 mps 744 mmHg 77%
15:00 +20°C° 0.2 mm 4 mps 744 mmHg 79%
16:00 +20°C° 0.2 mm 4 mps 744 mmHg 80%
17:00 +20°C° 0.2 mm 4 mps 744 mmHg 82%
18:00 +18°C° 0.1 mm 3 mps 745 mmHg 86%
19:00 +17°C° 0.1 mm 3 mps 745 mmHg 90%
20:00 +16°C° 0.1 mm 2 mps 745 mmHg 94%
21:00 +15°C° 0 mm 2 mps 745 mmHg 95%
22:00 +15°C° 0 mm 2 mps 745 mmHg 96%
23:00 +14°C° 0 mm 2 mps 745 mmHg 97%

18 July, Saturday

Time Temperature Precipitation Wind Pressure Humidity
00:00 +14°C° 0 mm 2 mps 745 mmHg 97%
01:00 +13°C° 0 mm 2 mps 746 mmHg 97%
02:00 +13°C° 0 mm 2 mps 746 mmHg 97%
03:00 +13°C° 0 mm 2 mps 746 mmHg 97%
04:00 +12°C° 0 mm 3 mps 746 mmHg 97%
05:00 +12°C° 0 mm 3 mps 746 mmHg 97%
06:00 +14°C° 0 mm 3 mps 746 mmHg 92%
07:00 +16°C° 0 mm 3 mps 746 mmHg 88%
08:00 +17°C° 0 mm 3 mps 746 mmHg 84%
09:00 +18°C° 0.1 mm 3 mps 746 mmHg 82%
10:00 +18°C° 0.1 mm 3 mps 746 mmHg 81%
11:00 +19°C° 0.1 mm 3 mps 747 mmHg 79%
12:00 +19°C° 0.1 mm 3 mps 747 mmHg 78%
13:00 +19°C° 0.1 mm 3 mps 747 mmHg 77%
14:00 +20°C° 0.1 mm 3 mps 747 mmHg 76%
15:00 +19°C° 0.1 mm 3 mps 747 mmHg 78%
16:00 +19°C° 0.1 mm 4 mps 747 mmHg 79%
17:00 +19°C° 0.1 mm 4 mps 747 mmHg 80%
18:00 +17°C° 0 mm 3 mps 747 mmHg 84%
19:00 +14°C° 0 mm 3 mps 747 mmHg 89%
20:00 +14°C° 0 mm 2 mps 747 mmHg 93%
21:00 +13°C° 0 mm 2 mps 747 mmHg 93%
22:00 +13°C° 0 mm 1 mps 747 mmHg 94%
23:00 +13°C° 0 mm 1 mps 747 mmHg 94%
Show more